Stephenville, TX

12:53 PM CDT on September 28, 2016 (GMT -0500)
Clark Municipal

Weather History for KSEP - November, 2012

Change the Weather History Date:

Sunday, November 11, 2012

  Actual Average Record
Temperature  
Mean Temperature 58 °F -  
Max Temperature 73 °F 65 °F 82 °F (1949)
Min Temperature 42 °F 40 °F 11 °F (1950)
Degree Days  
Heating Degree Days 8    
Growing Degree Days 8 (Base 50)    
Moisture  
Dew Point 43 °F    
Average Humidity 51    
Maximum Humidity 76    
Minimum Humidity 18    
Precipitation  
Precipitation 0.00 in - - ()
Sea Level Pressure  
Sea Level Pressure 29.99 in    
Wind  
Wind Speed 13 mph (West)    
Max Wind Speed 18 mph    
Max Gust Speed 28 mph    
Visibility 10 miles    
Events      
Averages and records for this station are not official NWS values.
T = Trace of Precipitation, MM = Missing Value Source: NWS Daily Summary

Daily Weather History Graph

Daily Weather History Graph

Search for Another Location

Airport or City:

Trip Planner

Search our weather history database for the weather conditions in past years. The results will help you decide how hot, cold, wet, or windy it might be!

Date:

Astronomy

Nov. 11, 2012 Rise Set
Actual Time 6:58 AM CST 5:34 PM CST
Civil Twilight 6:32 AM CST 6:00 PM CST
Nautical Twilight 6:03 AM CST 6:29 PM CST
Astronomical Twilight 5:34 AM CST 6:58 PM CST
Moon 4:21 AM CST (11/11) 3:53 PM CST (11/11)
Length of Visible Light 11h 27m
Length of Day
10h 35m
Waning Crescent, 7% of the Moon is Illuminated
Nov 11
Waning Crescent
Nov 13
New
Nov 20
First Quarter
Nov 28
Full
Dec 6
Last Quarter

Hourly Weather History & Observations

Time (CST) Temp. Windchill Dew Point Humidity Pressure Visibility Wind Dir Wind Speed Gust Speed Precip Events Conditions
12:15 AM 69.8 °F - 59.0 °F 68% 29.84 in 10.0 mi South 16.1 mph 27.6 mph N/A   Mostly Cloudy
12:35 AM 69.8 °F - 59.0 °F 68% 29.84 in 10.0 mi South 16.1 mph 25.3 mph N/A   Mostly Cloudy
12:55 AM 69.8 °F - 59.0 °F 68% 29.83 in 10.0 mi South 13.8 mph 23.0 mph N/A   Overcast
1:15 AM 69.8 °F - 59.0 °F 68% 29.82 in 10.0 mi South 16.1 mph 23.0 mph N/A   Mostly Cloudy
1:35 AM 69.8 °F - 59.0 °F 68% 29.82 in 10.0 mi South 15.0 mph 26.5 mph N/A   Mostly Cloudy
1:55 AM 69.8 °F - 59.0 °F 68% 29.81 in 10.0 mi South 15.0 mph 27.6 mph N/A   Scattered Clouds
2:15 AM 69.8 °F - 59.0 °F 68% 29.81 in 10.0 mi South 15.0 mph 20.7 mph N/A   Clear
2:35 AM 68.0 °F - 59.0 °F 73% 29.80 in 10.0 mi South 15.0 mph 21.9 mph N/A   Scattered Clouds
2:55 AM 69.8 °F - 59.0 °F 68% 29.80 in 10.0 mi South 15.0 mph 23.0 mph N/A   Mostly Cloudy
3:15 AM 69.8 °F - 59.0 °F 68% 29.80 in 10.0 mi South 15.0 mph 25.3 mph N/A   Mostly Cloudy
3:35 AM 69.8 °F - 59.0 °F 68% 29.78 in 10.0 mi South 18.4 mph 24.2 mph N/A   Overcast
3:55 AM 69.8 °F - 59.0 °F 68% 29.80 in 10.0 mi South 13.8 mph 21.9 mph N/A   Overcast
4:15 AM 69.8 °F - 59.0 °F 68% 29.80 in 10.0 mi South 16.1 mph 25.3 mph N/A   Overcast
4:35 AM 69.8 °F - 60.8 °F 73% 29.81 in 10.0 mi SSW 13.8 mph 24.2 mph N/A   Overcast
4:55 AM 69.8 °F - 60.8 °F 73% 29.81 in 10.0 mi South 15.0 mph 20.7 mph N/A   Overcast
5:15 AM 69.8 °F - 60.8 °F 73% 29.81 in 10.0 mi South 16.1 mph 25.3 mph N/A   Overcast
5:35 AM 69.8 °F - 59.0 °F 68% 29.81 in 10.0 mi South 17.3 mph 26.5 mph N/A   Mostly Cloudy
5:55 AM 69.8 °F - 59.0 °F 68% 29.81 in 10.0 mi South 11.5 mph 21.9 mph N/A   Scattered Clouds
6:15 AM 69.8 °F - 59.0 °F 68% 29.83 in 10.0 mi South 13.8 mph 19.6 mph N/A   Mostly Cloudy
6:35 AM 71.6 °F - 59.0 °F 64% 29.85 in 10.0 mi SSW 9.2 mph 16.1 mph N/A   Overcast
6:55 AM 71.6 °F - 59.0 °F 64% 29.86 in 10.0 mi SSW 15.0 mph 20.7 mph N/A   Overcast
7:15 AM 71.6 °F - 57.2 °F 60% 29.88 in 10.0 mi SSW 13.8 mph 27.6 mph N/A   Overcast
7:35 AM 71.6 °F - 57.2 °F 60% 29.89 in 10.0 mi SSW 12.7 mph 20.7 mph N/A   Overcast
7:55 AM 71.6 °F - 57.2 °F 60% 29.90 in 10.0 mi SSW 10.4 mph 17.3 mph N/A   Overcast
8:15 AM 71.6 °F - 57.2 °F 60% 29.90 in 10.0 mi SSW 10.4 mph 17.3 mph N/A   Overcast
8:35 AM 71.6 °F - 57.2 °F 60% 29.91 in 10.0 mi SSW 9.2 mph 18.4 mph N/A   Overcast
8:55 AM 71.6 °F - 59.0 °F 64% 29.91 in 10.0 mi SSW 10.4 mph 20.7 mph N/A   Mostly Cloudy
9:15 AM 71.6 °F - 59.0 °F 64% 29.91 in 10.0 mi SSW 13.8 mph 19.6 mph N/A   Scattered Clouds
9:35 AM 73.4 °F - 59.0 °F 61% 29.92 in 10.0 mi SSW 10.4 mph 18.4 mph N/A   Scattered Clouds
9:55 AM 66.2 °F - 51.8 °F 60% 29.95 in 10.0 mi NW 15.0 mph 25.3 mph N/A   Mostly Cloudy
10:15 AM 60.8 °F - 46.4 °F 59% 29.97 in 10.0 mi NW 13.8 mph 20.7 mph N/A   Overcast
10:35 AM 59.0 °F - 44.6 °F 59% 29.98 in 10.0 mi NW 13.8 mph - N/A   Overcast
10:55 AM 60.8 °F - 42.8 °F 52% 29.99 in 10.0 mi NW 13.8 mph 17.3 mph N/A   Overcast
11:15 AM 60.8 °F - 42.8 °F 52% 29.99 in 10.0 mi NW 10.4 mph - N/A   Overcast
11:35 AM 62.6 °F - 41.0 °F 45% 29.98 in 10.0 mi NW 11.5 mph - N/A   Mostly Cloudy
11:55 AM 66.2 °F - 37.4 °F 35% 29.99 in 10.0 mi WNW 12.7 mph 16.1 mph N/A   Overcast
12:15 PM 66.2 °F - 35.6 °F 32% 29.99 in 10.0 mi NW 9.2 mph - N/A   Overcast
12:35 PM 68.0 °F - 33.8 °F 28% 29.98 in 10.0 mi NW 12.7 mph - N/A   Mostly Cloudy
12:55 PM 69.8 °F - 32.0 °F 25% 29.98 in 10.0 mi NW 10.4 mph 17.3 mph N/A   Scattered Clouds
1:15 PM 68.0 °F - 32.0 °F 26% 29.97 in 10.0 mi NW 11.5 mph 17.3 mph N/A   Mostly Cloudy
1:35 PM 69.8 °F - 32.0 °F 25% 29.97 in 10.0 mi NNW 12.7 mph 19.6 mph N/A   Mostly Cloudy
1:55 PM 68.0 °F - 28.4 °F 23% 29.97 in 10.0 mi NW 15.0 mph 19.6 mph N/A   Mostly Cloudy
2:15 PM 68.0 °F - 26.6 °F 21% 29.98 in 10.0 mi NW 11.5 mph 19.6 mph N/A   Mostly Cloudy
2:35 PM 68.0 °F - 24.8 °F 20% 29.99 in 10.0 mi NW 11.5 mph 17.3 mph N/A   Mostly Cloudy
2:55 PM 68.0 °F - 24.8 °F 20% 29.99 in 10.0 mi NW 9.2 mph - N/A   Overcast
3:15 PM 68.0 °F - 26.6 °F 21% 30.00 in 10.0 mi NW 5.8 mph - N/A   Mostly Cloudy
3:35 PM 68.0 °F - 28.4 °F 23% 30.00 in 10.0 mi Calm Calm - N/A   Mostly Cloudy
3:55 PM 69.8 °F - 24.8 °F 18% 30.01 in 10.0 mi WNW 12.7 mph 20.7 mph N/A   Mostly Cloudy
4:15 PM 69.8 °F - 26.6 °F 20% 30.02 in 10.0 mi WNW 15.0 mph 19.6 mph N/A   Mostly Cloudy
4:35 PM 68.0 °F - 26.6 °F 21% 30.03 in 10.0 mi WNW 9.2 mph 16.1 mph N/A   Scattered Clouds
4:55 PM 68.0 °F - 24.8 °F 20% 30.04 in 10.0 mi WNW 8.1 mph - N/A   Scattered Clouds
5:15 PM 68.0 °F - 24.8 °F 20% 30.05 in 10.0 mi WNW 8.1 mph - N/A   Mostly Cloudy
5:35 PM 66.2 °F - 24.8 °F 21% 30.06 in 10.0 mi NW 11.5 mph 17.3 mph N/A   Overcast
5:55 PM 64.4 °F - 24.8 °F 22% 30.07 in 10.0 mi WNW 6.9 mph - N/A   Scattered Clouds
6:15 PM 64.4 °F - 24.8 °F 22% 30.08 in 10.0 mi WNW 6.9 mph - N/A   Clear
6:35 PM 62.6 °F - 26.6 °F 26% 30.09 in 10.0 mi WNW 4.6 mph - N/A   Scattered Clouds
6:55 PM 62.6 °F - 26.6 °F 26% 30.10 in 10.0 mi WNW 5.8 mph - N/A   Scattered Clouds
7:15 PM 62.6 °F - 21.2 °F 20% 30.12 in 10.0 mi WNW 10.4 mph 18.4 mph N/A   Clear
7:35 PM 62.6 °F - 19.4 °F 19% 30.13 in 10.0 mi WNW 8.1 mph 16.1 mph N/A   Clear
7:55 PM 60.8 °F - 21.2 °F 22% 30.16 in 10.0 mi NNW 16.1 mph 20.7 mph N/A   Scattered Clouds
8:15 PM 57.2 °F - 35.6 °F 44% 30.18 in 10.0 mi North 15.0 mph 18.4 mph N/A   Scattered Clouds
8:35 PM 51.8 °F - 41.0 °F 67% 30.20 in 10.0 mi North 11.5 mph 19.6 mph N/A   Clear
8:55 PM 50.0 °F - 41.0 °F 71% 30.22 in 10.0 mi North 16.1 mph 23.0 mph N/A   Clear
9:15 PM 48.2 °F - 37.4 °F 66% 30.24 in 10.0 mi North 13.8 mph 20.7 mph N/A   Clear
9:35 PM 46.4 °F 40.7 °F 37.4 °F 71% 30.25 in 10.0 mi North 12.7 mph 19.6 mph N/A   Clear
9:55 PM 46.4 °F 40.7 °F 35.6 °F 66% 30.26 in 10.0 mi North 12.7 mph 16.1 mph N/A   Clear
10:15 PM 44.6 °F 39.7 °F 35.6 °F 71% 30.27 in 10.0 mi NNW 9.2 mph - N/A   Clear
10:35 PM 44.6 °F 40.7 °F 35.6 °F 71% 30.28 in 10.0 mi North 6.9 mph - N/A   Clear
10:55 PM 42.8 °F 38.6 °F 35.6 °F 76% 30.29 in 10.0 mi NNW 6.9 mph - N/A   Clear
11:15 PM 42.8 °F 38.6 °F 33.8 °F 70% 30.29 in 10.0 mi NNW 6.9 mph - N/A   Clear
11:35 PM 42.8 °F 37.0 °F 33.8 °F 70% 30.30 in 10.0 mi North 10.4 mph - N/A   Clear
11:55 PM 42.8 °F 37.5 °F 32.0 °F 66% 30.30 in 10.0 mi North 9.2 mph - N/A   Clear